Location: ?sanag?dem
(16.9522°N, 81.1036°E)
Time: 16:46:39
(UTC+00:00)

BlueWalker 3 - Pass Details

Date: 23 August 2024
Orbit: 475 x 486 km, 53.2° (Epoch: 20 September)

Event Time Altitude Azimuth Distance (km) Brightness Sun altitude
Rises 13:24:51 0° 216° (SW) 2,511 5.8 -7.7°
Reaches altitude 10° 13:26:59 10° 216° (SW) 1,637 4.8 -8.2°
Maximum altitude 13:30:41 89° 303° (WNW) 480 1.8 -9.0°
Drops below altitude 10° 13:34:24 10° 36° (NE) 1,648 4.3 -9.9°
Sets 13:36:34 0° 36° (NE) 2,531 5.3 -10.4°
